Hourly Weather Puchkovskie

Today, 12 May, Wednesday

Time Temperature Precipitation Wind Pressure Humidity
00:00 +10°C° 0 mm 3 mps 752 mmHg 89%
01:00 +10°C° 0 mm 3 mps 752 mmHg 91%
02:00 +10°C° 0 mm 3 mps 752 mmHg 94%
03:00 +10°C° 0 mm 2 mps 752 mmHg 94%
04:00 +10°C° 0 mm 2 mps 752 mmHg 95%
05:00 +12°C° 0 mm 2 mps 752 mmHg 95%
06:00 +12°C° 0 mm 3 mps 752 mmHg 89%
07:00 +14°C° 0 mm 4 mps 752 mmHg 83%
08:00 +16°C° 0 mm 5 mps 752 mmHg 77%
09:00 +17°C° 0 mm 5 mps 752 mmHg 72%
10:00 +17°C° 0 mm 5 mps 752 mmHg 67%
11:00 +19°C° 0 mm 5 mps 752 mmHg 62%
12:00 +19°C° 0 mm 5 mps 752 mmHg 57%
13:00 +19°C° 0 mm 5 mps 752 mmHg 52%
14:00 +19°C° 0 mm 5 mps 752 mmHg 46%
15:00 +19°C° 0 mm 5 mps 751 mmHg 48%
16:00 +18°C° 0 mm 4 mps 751 mmHg 50%
17:00 +18°C° 0 mm 4 mps 750 mmHg 52%
18:00 +16°C° 0 mm 3 mps 750 mmHg 58%
19:00 +15°C° 0 mm 2 mps 749 mmHg 64%
20:00 +13°C° 0 mm 1 mps 749 mmHg 70%
21:00 +13°C° 0 mm 1 mps 748 mmHg 69%
22:00 +13°C° 0 mm 2 mps 747 mmHg 67%
23:00 +13°C° 0 mm 3 mps 746 mmHg 65%

Tomorrow, 13 May, Thursday

Time Temperature Precipitation Wind Pressure Humidity
00:00 +12°C° 1.1 mm 3 mps 746 mmHg 76%
01:00 +12°C° 1.1 mm 3 mps 745 mmHg 86%
02:00 +11°C° 1.1 mm 3 mps 744 mmHg 97%
03:00 +10°C° 0.7 mm 5 mps 744 mmHg 94%
04:00 +9°C° 0.7 mm 6 mps 744 mmHg 92%
05:00 +8°C° 0.7 mm 7 mps 744 mmHg 90%
06:00 +9°C° 0 mm 7 mps 744 mmHg 87%
07:00 +9°C° 0 mm 7 mps 744 mmHg 84%
08:00 +10°C° 0 mm 7 mps 744 mmHg 82%
09:00 +9°C° 0.2 mm 7 mps 744 mmHg 84%
10:00 +9°C° 0.2 mm 6 mps 744 mmHg 86%
11:00 +8°C° 0.2 mm 6 mps 744 mmHg 88%
12:00 +9°C° 0.2 mm 6 mps 744 mmHg 87%
13:00 +9°C° 0.2 mm 5 mps 744 mmHg 86%
14:00 +9°C° 0.2 mm 5 mps 744 mmHg 84%
15:00 +10°C° 0.1 mm 4 mps 744 mmHg 83%
16:00 +10°C° 0.1 mm 4 mps 744 mmHg 82%
17:00 +11°C° 0.1 mm 3 mps 744 mmHg 81%
18:00 +10°C° 0.1 mm 3 mps 744 mmHg 84%
19:00 +10°C° 0.1 mm 3 mps 744 mmHg 86%
20:00 +9°C° 0.1 mm 3 mps 744 mmHg 88%
21:00 +9°C° 0 mm 3 mps 744 mmHg 90%
22:00 +8°C° 0 mm 3 mps 744 mmHg 92%
23:00 +8°C° 0 mm 3 mps 744 mmHg 94%

Day after tomorrow, 14 May, Friday

Time Temperature Precipitation Wind Pressure Humidity
00:00 +7°C° 0 mm 4 mps 743 mmHg 93%
01:00 +7°C° 0 mm 4 mps 743 mmHg 92%
02:00 +7°C° 0 mm 4 mps 743 mmHg 91%
03:00 +8°C° 0.1 mm 5 mps 743 mmHg 92%
04:00 +8°C° 0.1 mm 5 mps 743 mmHg 93%
05:00 +8°C° 0.1 mm 5 mps 743 mmHg 94%
06:00 +9°C° 0 mm 5 mps 743 mmHg 92%
07:00 +10°C° 0 mm 5 mps 743 mmHg 90%
08:00 +10°C° 0 mm 5 mps 743 mmHg 88%
09:00 +13°C° 0 mm 6 mps 743 mmHg 82%
10:00 +14°C° 0 mm 6 mps 743 mmHg 76%
11:00 +16°C° 0 mm 7 mps 743 mmHg 70%
12:00 +15°C° 0.2 mm 6 mps 743 mmHg 74%
13:00 +15°C° 0.2 mm 6 mps 743 mmHg 78%
14:00 +14°C° 0.2 mm 5 mps 743 mmHg 82%
15:00 +14°C° 0.2 mm 4 mps 743 mmHg 84%
16:00 +14°C° 0.2 mm 3 mps 742 mmHg 87%
17:00 +13°C° 0.2 mm 3 mps 742 mmHg 90%
18:00 +14°C° 0.8 mm 2 mps 742 mmHg 92%
19:00 +13°C° 0.8 mm 2 mps 742 mmHg 95%
20:00 +13°C° 0.8 mm 2 mps 741 mmHg 97%
21:00 +12°C° 0 mm 2 mps 741 mmHg 97%
22:00 +10°C° 0 mm 2 mps 741 mmHg 97%
23:00 +10°C° 0 mm 2 mps 741 mmHg 97%

15 May, Saturday

Time Temperature Precipitation Wind Pressure Humidity
00:00 +10°C° 0 mm 2 mps 741 mmHg 96%
01:00 +9°C° 0 mm 2 mps 741 mmHg 96%
02:00 +10°C° 0 mm 1 mps 741 mmHg 95%
03:00 +9°C° 0 mm 2 mps 741 mmHg 96%
04:00 +9°C° 0 mm 2 mps 741 mmHg 96%
05:00 +10°C° 0 mm 2 mps 741 mmHg 96%
06:00 +12°C° 0 mm 2 mps 741 mmHg 93%
07:00 +13°C° 0 mm 2 mps 741 mmHg 90%
08:00 +13°C° 0 mm 3 mps 742 mmHg 86%
09:00 +14°C° 0 mm 3 mps 742 mmHg 80%
10:00 +16°C° 0 mm 3 mps 742 mmHg 74%
11:00 +17°C° 0 mm 4 mps 742 mmHg 69%
12:00 +17°C° 0 mm 4 mps 742 mmHg 69%
13:00 +17°C° 0 mm 4 mps 742 mmHg 70%
14:00 +16°C° 0 mm 5 mps 742 mmHg 71%
15:00 +15°C° 0 mm 5 mps 742 mmHg 74%
16:00 +14°C° 0 mm 5 mps 742 mmHg 77%
17:00 +14°C° 0 mm 5 mps 742 mmHg 80%
18:00 +13°C° 0 mm 4 mps 742 mmHg 83%
19:00 +12°C° 0 mm 4 mps 742 mmHg 85%
20:00 +11°C° 0 mm 4 mps 743 mmHg 88%
21:00 +11°C° 0 mm 4 mps 743 mmHg 89%
22:00 +10°C° 0 mm 3 mps 743 mmHg 90%
23:00 +10°C° 0 mm 3 mps 743 mmHg 90%

16 May, Sunday

Time Temperature Precipitation Wind Pressure Humidity
00:00 +10°C° 0 mm 3 mps 744 mmHg 91%
01:00 +9°C° 0 mm 3 mps 744 mmHg 91%
02:00 +9°C° 0 mm 3 mps 744 mmHg 92%
03:00 +8°C° 0 mm 3 mps 745 mmHg 93%
04:00 +8°C° 0 mm 2 mps 745 mmHg 94%
05:00 +8°C° 0 mm 2 mps 745 mmHg 95%
06:00 +9°C° 0 mm 2 mps 746 mmHg 88%
07:00 +12°C° 0 mm 2 mps 746 mmHg 81%
08:00 +14°C° 0 mm 2 mps 746 mmHg 74%
09:00 +15°C° 0 mm 2 mps 747 mmHg 69%
10:00 +17°C° 0 mm 2 mps 747 mmHg 63%
11:00 +18°C° 0 mm 3 mps 747 mmHg 58%
12:00 +19°C° 0 mm 2 mps 747 mmHg 56%
13:00 +19°C° 0 mm 2 mps 747 mmHg 54%
14:00 +20°C° 0 mm 2 mps 747 mmHg 52%
15:00 +20°C° 0 mm 2 mps 747 mmHg 53%
16:00 +21°C° 0 mm 1 mps 747 mmHg 54%
17:00 +21°C° 0 mm 1 mps 747 mmHg 55%
18:00 +20°C° 0 mm 1 mps 747 mmHg 62%
19:00 +17°C° 0 mm 2 mps 747 mmHg 70%
20:00 +15°C° 0 mm 2 mps 747 mmHg 78%
21:00 +15°C° 0 mm 2 mps 747 mmHg 82%
22:00 +14°C° 0 mm 2 mps 747 mmHg 85%
23:00 +13°C° 0 mm 2 mps 747 mmHg 88%

17 May, Monday

Time Temperature Precipitation Wind Pressure Humidity
00:00 +13°C° 0 mm 2 mps 747 mmHg 90%
01:00 +11°C° 0 mm 3 mps 747 mmHg 91%
02:00 +11°C° 0 mm 3 mps 747 mmHg 93%
03:00 +11°C° 0 mm 3 mps 747 mmHg 91%
04:00 +11°C° 0 mm 3 mps 747 mmHg 89%
05:00 +11°C° 0 mm 3 mps 746 mmHg 87%
06:00 +13°C° 0 mm 4 mps 746 mmHg 82%
07:00 +14°C° 0 mm 5 mps 745 mmHg 77%
08:00 +15°C° 0 mm 5 mps 745 mmHg 72%
09:00 +17°C° 0 mm 6 mps 744 mmHg 70%
10:00 +20°C° 0 mm 6 mps 744 mmHg 68%
11:00 +22°C° 0 mm 7 mps 743 mmHg 66%
12:00 +23°C° 0 mm 7 mps 743 mmHg 65%
13:00 +24°C° 0 mm 7 mps 742 mmHg 64%
14:00 +26°C° 0 mm 7 mps 742 mmHg 63%
15:00 +24°C° 0.1 mm 7 mps 742 mmHg 65%
16:00 +24°C° 0.1 mm 7 mps 741 mmHg 66%
17:00 +24°C° 0.1 mm 7 mps 741 mmHg 68%
18:00 +22°C° 1 mm 6 mps 741 mmHg 72%
19:00 +21°C° 1 mm 5 mps 741 mmHg 77%
20:00 +19°C° 1 mm 5 mps 741 mmHg 81%
21:00 +19°C° 0.8 mm 4 mps 741 mmHg 86%
22:00 +18°C° 0.8 mm 3 mps 741 mmHg 91%
23:00 +17°C° 0.8 mm 2 mps 742 mmHg 96%
Show more

We Need Your Consent

Meteoprog and our Service Providers may store and access personal data such as cookies, device identifiers or other similar technologies on your device and process such data to personalise content and ads, as well as provide social media features and to analyse the traffic.

  • Store and/or access information on your device

    Cookies, device identifiers or other information can be stored or accessed on your device for the purposes indicated above.

  • Personalised ads and content, ad and content measurement, audience insights, and products development

    Ads and content can be personalised based on a profile. More data can be added to better personalise ads and content. Ad and content performance can be measured. Insights about the audience who saw the ads and content can be derived. Such data can be used to develop or improve user’s experience, systems and software.

By clicking ‘I Agree’ you will allow the use of indicated cookies, device identifiers, web beacons or other similar technologies. Your settings can be changed in the browser on your device.

For certain purposes, legitimate interests may be relied on, rather than consent. You can read more about this in our Privacy and Cookie Policy.